www.weatherandclimate.eu
WEATHER в Карауле
Time
(UTC), date
18 13.01
21 13.01
00 14.01
03 14.01
06 14.01
09 14.01
12 14.01
15 14.01
18 14.01
21 14.01
00 15.01
03 15.01
06 15.01
09 15.01
12 15.01
15 15.01
18 15.01
21 15.01
00 16.01
03 16.01
06 16.01
09 16.01
12 16.01
15 16.01
18 16.01
21 16.01
00 17.01
03 17.01
06 17.01
09 17.01
12 17.01
15 17.01
18 17.01
21 17.01
00 18.01
03 18.01
06 18.01
09 18.01
12 18.01
15 18.01
18 18.01
21 18.01
00 19.01
03 19.01
06 19.01
09 19.01
12 19.01
15 19.01
18 19.01
21 19.01
00 20.01
03 20.01
06 20.01
09 20.01
12 20.01
Wind
(dir.,m/s)
Visibility Phenomena Clouds Т
(С)
Тd
(С)
f
(%)
Тe
(С)
Тes
(С)
Comfort P
(hPa)
Po
hPa)
Тmin
(С)
Tmax
(С)
R
(mm)
R24
(mm)
S
(sm)
N 8-10
{10}
20 km driftingsnow ясно -31.5 -34.5 75 -47 -47 risk of frostbite 1011.5 1007.4
N 8-10
{10}
20 km driftingsnow ясно -32.4 -35.5 74 -49 -49 risk of frostbite 1012.4 1008.3
SE 3
{10}
20 km {drifting snow} ясно -34.8 -37.7 75 -45 -45 risk of frostbite 1014.5 1010.3 -35.0 34
N 7 20 km driftingsnow ясно -36.7 -40.4 68 -53 -53 risk of frostbite 1017.0 1012.8
N 5 20 km {drifting snow} ясно -37.8 -41.1 71 -52 -52 risk of frostbite 1019.5 1015.2
N 5 20 km ясно -40.0 -43.3 70 -55 -55 risk of frostbite 1022.3 1018.3
0 20 km ясно -37.2 -40.7 70 -37 -37 risk of frostbite 1024.4 1020.2 -36.7
N 1 20 km ясно -39.8 -43.3 69 -45 -45 risk of frostbite 1026.5 1022.2
N 3 20 km ясно -38.4 -42.0 69 -50 -50 risk of frostbite 1027.9 1023.6
N 1 20 km ясно -39.5 -42.9 70 -45 -45 risk of frostbite 1029.2 1024.9
20 km ясно -41.3 -44.4 72 1031.8 1027.5 -41.5 34
E 3 50 km ясно -38.6 -42.0 70 -50 -50 risk of frostbite 1031.9 1027.6 -42.0
SE 1 50 km 3/0
[Ac trans]
-40.2 -43.3 72 -45 -45 risk of frostbite 1032.3 1028.0
E 4 50 km {drifting snow} 3/0
[Ci fib]
-41.0 -45.1 64 -55 -55 risk of frostbite 1032.9 1028.6
E 4 50 km {drifting snow} 3/0
[Ci fib]
-42.3 -46.1 66 -56 -56 risk of frostbite 1033.3 1029.0 -38.6
SE 4 50 km ясно -43.4 -47.4 64 -58 -58 risk of frostbite 1032.5 1028.1
SE 7-10
{10}
50 km driftingsnow ясно -44.5 -48.2 66 -63 -63 risk of frostbite 1031.8 1027.4
E 7-11
{12}
50 km driftingsnow ясно -44.8 -48.9 63 -64 -64 risk of frostbite 1031.6 1027.2
SE 9-13
{14}
20 km driftingsnow ясно -42.0 -45.5 68 -62 -62 risk of frostbite 1030.9 1026.6 -45.0 34
E 12-16
{16}
4000 m blizzard {drifting snow} ясно -38.0 -40.9 74 -59 -59 risk of frostbite 1029.4 1025.1
11-15
{16}
blizzard {drifting snow} н/о -39.9 1029.5 1024.9
E 8-12
{15}
20 km driftingsnow 3/0 2000 м
[Ac trans]
-36.5 -40.0 70 -54 -54 risk of frostbite 1028.8 1024.5
E 8-12
{13}
20 km driftingsnow 3/0 2000 м
[Ac trans]
-34.9 -38.4 70 -52 -52 risk of frostbite 1028.1 1023.9 -34.8
E 7-10
{12}
20 km driftingsnow ясно -34.0 -37.5 70 -50 -50 risk of frostbite 1027.4 1023.2
E 6
{10}
20 km driftingsnow ясно -37.0 -40.4 70 -53 -53 risk of frostbite 1027.2 1022.9
E 8
{10}
20 km driftingsnow ясно -37.3 -40.4 73 -55 -55 risk of frostbite 1027.2 1022.9
E 8-10
{12}
20 km heavydriftingsnow ясно -38.0 -41.5 69 -56 -56 risk of frostbite 1024.8 1020.5 -38.1 34
E 8-12
{12}
20 km driftingsnow ясно -39.8 -43.3 69 -58 -58 risk of frostbite 1022.3 1018.0 -40.0
E 8-10
{12}
20 km driftingsnow 3/0 2000 м
[Ac trans]
-39.4 -42.9 69 -58 -58 risk of frostbite 1020.1 1015.8
NE 9-13
{13}
20 km driftingsnow 3/0 2000 м
[Ac trans]
-39.7 -42.9 71 -59 -59 risk of frostbite 1017.5 1013.2
NE 15-19
{19}
2000 m blizzard {drifting snow} 3/0 2000 м
[Ac trans]
-37.5 -41.1 69 -60 -60 risk of frostbite 1013.4 1009.1 -37.5
NE 15-19
{19}
2000 m blizzard {drifting snow} 3/0 2000 м
[Ac trans]
-35.7 -39.3 69 -57 -57 risk of frostbite 1009.8 1005.6
NE 16-20
{20}
2000 m blizzard {drifting snow} ясно -36.0 -39.7 69 -58 -58 risk of frostbite 1006.2 1002.1
NE 14-18
{20}
2000 m blizzard {drifting snow} ясно -34.5 -38.1 70 -55 -55 risk of frostbite 1003.9 999.8
NE 12-16
{18}
4000 m blizzard {drifting snow} ясно -32.0 -35.7 70 -51 -51 risk of frostbite 1002.6 998.6 -37.7 33
E 10-16
{16}
4000 m blizzard {drifting snow} 9/0 2000 м
[Ac trans]
-28.1 -31.8 70 -44 -44 risk of frostbite 1002.0 998.0
E 9-13
{16}
20 km heavydriftingsnow 10/0 2000 м
[Ac trans Cs]
-27.1 -30.1 76 -42 -42 risk of frostbite 1002.4 998.4
E 9-14
{14}
4000 m slightsnow {drifting snow} 10/0 2000 м
[Ac trans Cs]
-27.1 -30.1 76 -42 -42 risk of frostbite 1003.3 999.3
E 9-14
{14}
4000 m slightsnow {drifting snow} 10/0 2000 м
[Ac trans Cs]
-25.0 -28.1 75 -40 -40 risk of frostbite 1004.0 1000.0 -25.0 0.2
E 8-12
{14}
20 km driftingsnow 10/0 2000 м
[Ac trans Cs]
-23.8 -27.0 75 -37 -37 risk of frostbite 1004.4 1000.4
NE 9-14
{14}
20 km heavydriftingsnow 4/0
[Ci fib]
-27.5 -30.6 75 -43 -43 risk of frostbite 1006.1 1002.1
NE 10-14
{14}
20 km heavydriftingsnow 3/0
[Ci fib]
-29.4 -32.4 75 -46 -46 risk of frostbite 1006.3 1002.3
NE 10-14
{14}
20 km heavydriftingsnow ясно -32.2 -35.2 75 -50 -50 risk of frostbite 1007.4 1003.4 -32.4 0.0 33
NE 12-15
{15}
4000 m blizzard {drifting snow} 3/0 2000 м
[Ac trans]
-32.5 -36.1 70 -51 -51 risk of frostbite 1008.8 1004.6 -32.9
E 10-14
{16}
20 km heavydriftingsnow 3/0 2000 м
[Ac trans]
-32.6 -36.1 71 -50 -50 risk of frostbite 1010.4 1006.2
E 10-13
{14}
20 km heavydriftingsnow 3/0 2000 м
[Ac trans]
-33.3 -36.9 70 -51 -51 risk of frostbite 1012.6 1008.4
E 12-16
{16}
4000 m blizzard {drifting snow} ясно -34.0 -37.5 70 -53 -53 risk of frostbite 1014.7 1010.5 -32.2
E 10-15
{16}
20 km blizzard {drifting snow} ясно -35.0 -38.7 69 -53 -53 risk of frostbite 1018.4 1014.2
E 9-14
{15}
20 km heavydriftingsnow ясно -37.7 -41.1 70 -56 -56 risk of frostbite 1018.9 1014.6
E 8-13
{14}
20 km heavydriftingsnow ясно -38.5 -42.0 69 -56 -56 risk of frostbite 1020.7 1016.4
W 3
{13}
20 km {drifting snow} ясно -36.0 -39.7 69 -47 -47 risk of frostbite 1021.8 1017.6 -38.8 33
N 6 20 km driftingsnow 5/0
[Ac trans]
-35.2 -38.7 70 -50 -50 risk of frostbite 1023.3 1019.1
N 7
{10}
20 km driftingsnow 3/0
[Ci fib]
-34.4 -38.1 69 -50 -50 risk of frostbite 1024.3 1020.1
N 6 20 km driftingsnow 1/0
[Ci fib]
-34.0 -37.5 70 -49 -49 risk of frostbite 1025.9 1021.7
N 5 20 km {drifting snow} ясно -34.6 -37.4 76 -48 -48 risk of frostbite 1026.4 1022.8 -34.0
Weather station location Караул (Krasnoyarsk territory, Russia): latitude 70.08 longitude 83.17 Height above sea level 29 m.
The archive shows weather in в Карауле for the last week. For the whole month and for the previous months, starting from January 2011, you can obtain archived data by selecting the date range of interest from the drop-down list and clicking the "Find!".
*Decide who are you:
Attention! The time in the tables is UTC. To get the local time, you must add an amendment that is equal to 7 h.
See also the weather archive in nearby cities and at nearby weather stations:
Partners of our site:
Column explanations:
  • Wind - indicated wind speed in m/s - average for 10 minutes, gusts in time and between periods (in brackets) and the direction from which the wind blows: N - North, NE - North-East, E - East, SE - South-East , S - South, SW - South-West, W - West, NW - North-West.
  • Visibility - horizontal visibility range in meters or kilometers. When visibility is from 1 to 10 km in the absence of precipitation, haze is usually observed, and when visibility is reduced to 1 km or less, fog is observed. In dry weather, visibility may be reduced by smoke, dust, or haze.
  • Phenomena - atmospheric phenomena observed during the period or in the last hour before the period are indicated; curly brackets indicate phenomena observed between periods (1-3 hours before the period); square brackets indicate hail or ice deposits with their diameter in mm.
  • Clouds - are through slash total and lower clouds in points, and the height of the lower border of the cloud in meters; square brackets contain cloud forms: Ci - Cirrus, Cs - Cirrostratus, Cc - Cirrocumulus, Ac - Altocumulus, As - Altostratus, Sc - Stratocumulus, Ns - Nimbostratus, Cu - Cumulus, Cb - Cumulonimbus. For more information about cloud classification, see the cloud Atlas (PDF).
  • T - Air temperature - temperature measured at a height of 2 m above the ground.
  • Td - Dew point temperature - the temperature is lowered to that contained in the air, the water vapor reaches saturation.
  • f - Relative humidity measured at a height of 2 m above the ground.
  • Te - Effective temperature is the temperature that a seasonally dressed person feels in the shade. Characteristic of stuffy weather. The calculation takes into account the influence of air humidity and wind speed on a person’s heat.
  • Tes - Effective sun temperature - the temperature that a person feels, adjusted for solar heating. Characteristics of the sultry weather. Depends on the height of the sun above the horizon, cloud cover and wind speed. At night, in cloudy weather, as well as in winds of 12 m/s or more, the correction is zero.
  • P - Atmospheric pressure - atmospheric pressure reduced to sea level.
  • Po - Atmospheric pressure - atmospheric pressure measured at the station level.
  • Tmin - Minimum temperature - minimum air temperature at a height of 2 m above the ground.
  • Tmax - Maximum temperature - maximum air temperature at a height of 2 m above the ground.
  • R - Precipitation - The amount of precipitation over a period of time, mm. When you hover over the number, the time period for which the specified amount of precipitation has fallen.
  • R24 - Количество осадков - The amount of precipitation in 24 hours, mm.
  • S - Snow cover - The height of the snow cover. When you hover the mouse over the number - the state of the snow cover and the degree of coverage in points.